Regional Weather Roundup
Issued by NWS

Home | Current Version | Previous Version | Text Only | Print | Product List | Glossary Off
Versions: 1 2 3 4 5 6 7 8 9 10 11 12 13 14 15 16 17 18 19 20 21 22 23 24 25 26 27 28 29 30 31 32 33 34 35 36 37 38 39 40 41 42 43 44 45 46 47 48 49 50

606
ASUS44 KJAN 041410
RWRMS

MISSISSIPPI HOURLY WEATHER ROUNDUP
NATIONAL WEATHER SERVICE JACKSON MS
800 AM CST WED MAR 04 2015

NOTE: "FAIR: INDICATES FEW OR NO CLOUDS BELOW 12,000 FEET WITH NO
SIGNIFICANT WEATHER AND/OR OBSTRUCTIONS TO VISIBILITY.

MSZ001>002-007>008-010>013-018>021-025>028-034>036-041500-
NORTHWEST MISSISSIPPI

CITY           SKY/WX    TMP DP  RH WIND       PRES   REMARKS
CLARKSDALE     CLOUDY    63  63 100 S5        29.90F
CLEVELAND      RAIN      63  63 100 S7        29.90S
GREENWOOD      CLOUDY    67  64  90 S10       29.92S
GREENVILLE     LGT RAIN  65  64  97 S13       29.90S FOG
OLIVE BRANCH   CLOUDY    63  63 100 SW13      29.89R
OXFORD         CLOUDY    64  63  94 SW5       29.93S FOG
TUNICA         CLOUDY    63  61  94 SW7       29.90R FOG
$$

MSZ003>006-009-014>017-022>024-029>033-037>039-041500-
NORTHEAST MISSISSIPPI

CITY           SKY/WX    TMP DP  RH WIND       PRES   REMARKS
COLUMBUS AFB   PTSUNNY   67  66  96 S10       29.96R
CORINTH        CLOUDY    68  63  83 SW13G21   29.89R
GOLDN TRIANGLE CLOUDY    66  63  88 S13       29.97R
STARKVILLE     CLOUDY    66  64  94 CALM      29.97R
TUPELO         CLOUDY    65  63  93 SW10      29.93S FOG
$$

MSZ040-058-041500-
CENTRAL MISSISSIPPI

CITY           SKY/WX    TMP DP  RH WIND       PRES   REMARKS
JACKSON INTL   PTSUNNY   70  66  87 S13       29.97R
JACKSON HAWKNS PTSUNNY   68  65  90 S10       29.97R
MERIDIAN KEY   LGT RAIN  66  65  96 S8        30.01R
MERIDIAN NAS   CLOUDY    67  65  93 S6        30.01R
VICKSBURG      PTSUNNY   67  65  93 S7        29.95R FOG
$$

MSZ059>079-041500-
SOUTH MISSISSIPPI

CITY           SKY/WX    TMP DP  RH WIND       PRES   REMARKS
BROOKHAVEN     CLOUDY    66  66 100 S5        30.01R
HATTIESBURG    PTSUNNY   71  67  87 S10       30.02R
MCCOMB         CLOUDY    68  67  96 S6        30.00S FOG
NATCHEZ        CLOUDY    70  66  88 S10       29.98R
PINE BELT      CLOUDY    66  64  94 SW3       30.03R
$$

MSZ080>082-041500-
COASTAL MISSISSIPPI

CITY           SKY/WX    TMP DP  RH WIND       PRES   REMARKS
BAY ST LOUIS   PTSUNNY   68  63  83 S3        30.02R
BILOXI         PTSUNNY   68  68 100 S9        30.03R
PASCAGOULA     SUNNY     70  66  87 SE8       30.03R
GULFPORT       MOSUNNY   67  65  93 SE8       30.03R FOG
$$



USA.gov is the U.S. government's official web portal to all federal, state and local government web resources and services.